User: anonymous   Login
Location: Wayah Bald
(35.1806°N, 83.5603°W)
Time: 07:42:50
(UTC-04:00)
Language:

Meteor 1-27 Rocket - Orbit

View from above orbital plane
View from above orbital plane
View from above satellite
View from above satellite

Ground track
Ground track

The orbit data is extracted from the following two-line orbital elements,

1 09904U 77024B   15146.14345714  .00000156  00000-0  85635-4 0  9991
2 09904 081.2597 137.4650 0054346 289.5089 070.0215 14.06787088956919
Epoch (UTC): 26 May 2015 03:26:34
Eccentricity: 0.0054346
inclination: 81.2597°
perigee height: 831 km
apogee height: 910 km
right ascension of ascending node: 137.4650°
argument of perigee: 289.5089°
revolutions per day: 14.06787088
mean anomaly at epoch: 70.0215°
orbit number at epoch: 95691

The dashed part of the orbit path shows where the satellite is in the earth's shadow,  

DLR